If you wish to contribute or participate in the discussions about articles you are invited to join SKYbrary as a registered user

 Actions

Aomori Airport

From SKYbrary Wiki

RJSA
Airport
ICAO: RJSA – IATA: AOJ
Summary
Name Aomori Airport
Region Asia and Pacific
Territory Japan JP.gif
Location Aomori, Aomori Prefecture
Serving Aomori
Elevation 198.12 m650 ft198.12 m
Coordinates 40° 44' 17.8058", 140° 41' 20.7496"
Runways
Designator Length Width Surface ROPS
6/24 3001 m9,845.801 ft 61 m200.131 ft ASP yes/yes


METAR
Observation RJSA 150700Z 22007KT 9999 FEW010 SCT020 BKN040 07/04 Q1022
Station Aomori Airport
Date/Time 15 November 2018 07:00:00
Wind direction 220°
Wind speed 07 kts
Lowest cloud amount few clouds
Temperature 7°C
Dew point 4°C
Humidity 81%
QNH 1022 hPa
Weather condition n/a

Regional airport located 11.2 km6.048 nm
11,200 m
36,745.407 ft
south southwest of Aomori, the capital city of Aomori Prefecture in northern Japan.

Climatology

Humid Continental climate (Köppen climate classification Dfa)

Maps

Terrain

Loading map...

Airport Layout

Loading map...


Accidents & Serious Incidents at or in vicinity of RJSA

None on SKYbrary